This demonstration page uses our WeatherBlox Daily Observations layout. Learn more.

Left ArrowRight Arrow

Hourly Observations for January 10, 2020

Temp ( °F °C ) Dew Point ( °F °C ) Humidity (%) Winds ( mph kmh ) Pressure ( in mb ) Visibility ( mi km ) Precip ( " mm )
12:53 am 00:53 Clear 57 13.9 43 6.1 60 60 E 9 15 30.43 1030 10 16 0.00 0.00
1:53 am 01:53 Partly Cloudy 56 13.3 43 6.1 62 62 E 6 9 30.44 1031 10 16 0.00 0.00
2:53 am 02:53 Mostly Clear 55 12.8 43 6.1 64 64 E 7 11 30.43 1031 10 16 0.00 0.00
3:53 am 03:53 Clear 55 12.8 44 6.7 67 67 E 9 15 30.41 1030 10 16 0.00 0.00
4:53 am 04:53 Clear 54 12.2 45 7.2 72 72 VRB 6 9 30.39 1029 10 16 0.00 0.00
5:53 am 05:53 Clear 54 12.2 45 7.2 72 72 E 5 7 30.40 1030 10 16 0.00 0.00
6:53 am 06:53 Clear 53 11.7 45 7.2 74 74 E 8 13 30.41 1030 10 16 0.00 0.00
7:53 am 07:53 Sunny 51 10.6 44 6.7 77 77 ENE 7 11 30.42 1030 10 16 0.00 0.00
8:53 am 08:53 Sunny 53 11.7 45 7.2 74 74 ENE 8 13 30.43 1030 10 16 0.00 0.00
9:53 am 09:53 Sunny 56 13.3 47 8.3 72 72 E 7 11 30.44 1031 10 16 0.00 0.00
10:53 am 10:53 Mostly Cloudy 58 14.4 48 8.9 70 70 VRB 6 9 30.45 1031 10 16 0.00 0.00
11:53 am 11:53 Mostly Cloudy 62 16.7 49 9.4 62 62 ESE 8 13 30.42 1030 10 16 0.00 0.00
12:53 pm 12:53 Sunny 62 16.7 49 9.4 62 62 E 8 13 30.37 1028 10 16 0.00 0.00
1:53 pm 13:53 Sunny 64 17.8 50 10 60 60 SE 8 13 30.34 1027 10 16 0.00 0.00
2:53 pm 14:53 Mostly Cloudy 66 18.9 52 11.1 61 61 ESE 13 20 30.31 1026 10 16 0.00 0.00
3:53 pm 15:53 Mostly Sunny 64 17.8 51 10.6 63 63 SE 10 17 30.30 1026 10 16 0.00 0.00
4:53 pm 16:53 Mostly Sunny 64 17.8 52 11.1 65 65 VRB 7 11 30.30 1026 10 16 0.00 0.00
5:53 pm 17:53 Mostly Clear 63 17.2 52 11.1 68 68 E 5 7 30.30 1026 10 16 0.00 0.00
6:53 pm 18:53 Cloudy 62 16.7 52 11.1 70 70 E 7 11 30.31 1027 10 16 0.00 0.00
7:53 pm 19:53 Partly Cloudy 61 16.1 52 11.1 72 72 VRB 6 9 30.30 1026 10 16 0.00 0.00
8:53 pm 20:53 Mostly Clear 61 16.1 52 11.1 72 72 ENE 7 11 30.28 1026 10 16 0.00 0.00
9:53 pm 21:53 Cloudy 61 16.1 53 11.7 75 75 E 7 11 30.27 1025 10 16 0.00 0.00
10:17 pm 22:17 Cloudy 60 15.6 54 12.2 80 80 E 5 7 30.27 1025 10 16 0.00 0.00
10:53 pm 22:53 Cloudy 61 16.1 55 12.8 81 81 E 7 11 30.26 1025 10 16 0.00 0.00
11:23 pm 23:23 Cloudy 61 16.1 56 13.3 84 84 ESE 8 13 30.24 1024 10 16 0.00 0.00
11:53 pm 23:53 Cloudy 62 16.7 57 13.9 84 84 ESE 10 17 30.22 1023 10 16 0.00 0.00

Powered by AerisWeather